Simultaneous Nadir Overpasses (SNOs) Predictions

Prediction of SNOs between GOES-16 and METOP-B Satellite Orbit:

Table of predicted SNOs for the next 14.0 days since TLE Epoch: 12/21/2024
Index Date Time (GOES-16) GOES-16 Lat,Lon METOP-B Lat,Lon Distance(km) Time Diff (sec)
1 12/23/2024 02:13:45 0.02, -75.18 0.05, -75.06 13.73 80
2 12/25/2024 14:12:13 -0.02, -75.24 -0.14, -74.72 59.68 80
3 12/27/2024 02:34:02 0.01, -75.22 -0.93, -79.36 472.62 80
4 12/28/2024 02:10:48 0.01, -75.23 0.17, -74.40 94.05 80
5 12/29/2024 14:29:50 -0.01, -75.29 0.82, -79.03 425.81 80
6 12/30/2024 14:11:56 -0.00, -75.30 -0.29, -74.06 141.03 80
7 01/01/2025 02:31:06 -0.00, -75.28 -0.77, -78.71 390.67 80
8 01/02/2025 02:07:52 -0.00, -75.30 0.35, -73.75 176.34 80
9 01/03/2025 14:26:52 0.00, -75.36 0.68, -78.36 342.72 80
